Location: Karcze
(52.0945°N, 22.4786°E)
Time: 01:37:48
(UTC+00:00)

Cosmos 2360 - Pass Details

Date: 14 July 2020
Orbit: 844 x 858 km, 70.8° (Epoch: 06 August)

Event Time Altitude Azimuth Distance (km) Brightness Sun altitude
Rises 00:50:46 0° 327° (NNW) 3,443 7.7 -10.6°
Reaches altitude 10° 00:53:15 10° 324° (NW) 2,504 7.0 -10.4°
Maximum altitude 00:58:55 64° 245° (WSW) 953 4.3 -9.9°
Drops below altitude 10° 01:04:34 10° 165° (SSE) 2,487 6.3 -9.5°
Sets 01:07:02 0° 163° (SSE) 3,419 7.0 -9.2°
